User: anonymous   Login
Location: Molino di Ancona
(43.6167°N, 13.3667°E)
Time: 12:57:29
(UTC+00:00)
Language:

Cosmos 1943 - Orbit

View from above orbital plane
View from above orbital plane
View from above satellite
View from above satellite

Ground track
Ground track

The orbit data is extracted from the following two-line orbital elements,

1 19119U 88039A   20052.81782499 +.00000066 +00000-0 +58452-4 0  9996
2 19119 071.0028 204.4271 0011435 356.3299 105.1695 14.15149907640415
Epoch (UTC): 21 February 2020 19:37:40
Eccentricity: 0.0011435
inclination: 71.0028°
perigee height: 833 km
apogee height: 850 km
right ascension of ascending node: 204.4271°
argument of perigee: 356.3299°
revolutions per day: 14.15149907
mean anomaly at epoch: 105.1695°
orbit number at epoch: 64041

The dashed part of the orbit path shows where the satellite is in the earth's shadow,  

DLR